TimePDT,TemperatureF,Dew PointF,Humidity,Sea Level PressureIn,VisibilityMPH,Wind Direction,Wind SpeedMPH,Gust SpeedMPH,PrecipitationIn,Events,Conditions,WindDirDegrees,DateUTC
12:56 AM,61.0,35.1,38,29.88,7.0,North,6.9,-,N/A,,Clear,10,2007-10-21 07:56:00
1:11 AM,57.2,37.4,48,29.87,7.0,North,8.1,-,N/A,,Clear,350,2007-10-21 08:11:00
1:56 AM,55.9,37.0,49,29.88,7.0,NW,8.1,-,N/A,,Clear,310,2007-10-21 08:56:00
2:56 AM,68.0,30.0,24,29.87,10.0,NE,25.3,38.0,N/A,,Clear,40,2007-10-21 09:56:00
3:56 AM,68.0,30.0,24,29.86,10.0,NE,28.8,41.4,N/A,,Clear,40,2007-10-21 10:56:00
4:56 AM,68.0,26.1,21,29.89,10.0,NE,24.2,39.1,N/A,,Clear,40,2007-10-21 11:56:00
5:56 AM,68.0,21.0,17,29.90,7.0,NE,25.3,44.9,N/A,,Clear,50,2007-10-21 12:56:00
6:56 AM,66.9,19.0,16,29.94,7.0,NE,32.2,47.2,N/A,,Clear,50,2007-10-21 13:56:00
7:56 AM,68.0,15.1,13,29.96,7.0,NE,23.0,40.3,N/A,,Clear,40,2007-10-21 14:56:00
8:56 AM,70.0,16.0,13,29.99,10.0,NE,25.3,41.4,N/A,,Clear,40,2007-10-21 15:56:00
9:56 AM,72.0,17.1,12,30.02,7.0,NE,28.8,43.7,N/A,,Clear,50,2007-10-21 16:56:00
10:56 AM,73.9,12.9,10,30.03,10.0,NE,33.4,56.4,N/A,,Clear,50,2007-10-21 17:56:00
11:56 AM,75.9,15.1,10,30.04,9.0,NE,26.5,46.0,N/A,,Clear,40,2007-10-21 18:56:00
12:56 PM,78.1,14.0,9,30.03,7.0,NE,27.6,39.1,N/A,,Smoke,50,2007-10-21 19:56:00
1:56 PM,80.1,12.0,8,30.01,7.0,ENE,28.8,41.4,N/A,,Partly Cloudy,60,2007-10-21 20:56:00
2:56 PM,80.1,14.0,8,30.01,4.0,NE,28.8,38.0,N/A,,Haze,40,2007-10-21 21:56:00
3:56 PM,77.0,10.0,8,30.01,3.0,NE,25.3,38.0,N/A,,Smoke,50,2007-10-21 22:56:00
4:56 PM,77.0,10.9,8,30.03,3.0,NE,18.4,33.4,N/A,,Smoke,50,2007-10-21 23:56:00
5:56 PM,75.9,10.0,8,30.03,4.0,NE,20.7,33.4,N/A,,Smoke,40,2007-10-22 00:56:00
6:56 PM,75.0,12.0,9,30.04,4.0,NE,23.0,39.1,N/A,,Smoke,40,2007-10-22 01:56:00
7:56 PM,75.0,12.0,9,30.08,4.0,NE,21.9,36.8,N/A,,Smoke,40,2007-10-22 02:56:00
8:03 PM,73.4,12.2,10,30.07,4.0,NE,21.9,33.4,N/A,,Smoke,40,2007-10-22 03:03:00
8:56 PM,73.9,14.0,10,30.08,4.0,NE,17.3,29.9,N/A,,Smoke,40,2007-10-22 03:56:00
9:56 PM,75.0,12.9,9,30.11,4.0,NE,21.9,38.0,N/A,,Smoke,40,2007-10-22 04:56:00
10:56 PM,75.0,12.0,9,30.11,4.0,NE,21.9,46.0,N/A,,Smoke,50,2007-10-22 05:56:00
11:56 PM,73.9,14.0,10,30.11,9.0,NE,23.0,39.1,N/A,,Smoke,40,2007-10-22 06:56:00